Palacios, TX

7:02 AM CDT on September 25, 2016 (GMT -0500)
Palacios Municipal

Weather History for KPSX - July, 2014

Change the Weather History Date:

Tuesday, July 15, 2014

  Actual Average Record
Temperature  
Mean Temperature 85 °F -  
Max Temperature 91 °F 90 °F 95 °F (1944)
Min Temperature 79 °F 76 °F 65 °F (1967)
Cooling Degree Days 20    
Growing Degree Days 35 (Base 50)    
Moisture  
Dew Point 74 °F    
Average Humidity 72    
Maximum Humidity 84    
Minimum Humidity 55    
Precipitation  
Precipitation 0.00 in - - ()
Sea Level Pressure  
Sea Level Pressure 29.97 in    
Wind  
Wind Speed 9 mph (SSW)    
Max Wind Speed 20 mph    
Max Gust Speed 20 mph    
Visibility 10 miles    
Events Rain , Thunderstorm    
Averages and records for this station are not official NWS values.
T = Trace of Precipitation, MM = Missing Value Source: NWS Daily Summary

Daily Weather History Graph

Daily Weather History Graph

Search for Another Location

Airport or City:

Trip Planner

Search our weather history database for the weather conditions in past years. The results will help you decide how hot, cold, wet, or windy it might be!

Date:

Astronomy

Jul. 15, 2014 Rise Set
Actual Time 6:36 AM CDT 8:24 PM CDT
Civil Twilight 6:10 AM CDT 8:51 PM CDT
Nautical Twilight 5:38 AM CDT 9:22 PM CDT
Astronomical Twilight 5:05 AM CDT 9:56 PM CDT
Moon 10:57 PM CDT (7/15) 10:10 AM CDT (7/15)
Length of Visible Light 14h 40m
Length of Day
13h 47m
Waning Gibbous, 85% of the Moon is Illuminated
Jul 15
Waning Gibbous
Jul 18
Last Quarter
Jul 26
New
Aug 3
First Quarter
Aug 10
Full

Hourly Weather History & Observations

Time (CDT) Temp. Heat Index Dew Point Humidity Pressure Visibility Wind Dir Wind Speed Gust Speed Precip Events Conditions
12:53 AM 82.9 °F 89.4 °F 73.9 °F 74% 29.99 in 10.0 mi South 10.4 mph - N/A   Partly Cloudy
1:53 AM 82.9 °F 89.4 °F 73.9 °F 74% 29.99 in 10.0 mi South 10.4 mph - N/A   Partly Cloudy
2:53 AM 82.9 °F 90.2 °F 75.0 °F 77% 29.98 in 10.0 mi SSW 10.4 mph - N/A   Clear
3:53 AM 82.9 °F 90.2 °F 75.0 °F 77% 29.98 in 10.0 mi SSW 11.5 mph - N/A   Partly Cloudy
4:53 AM 82.9 °F 90.2 °F 75.0 °F 77% 29.97 in 10.0 mi SSW 11.5 mph - N/A   Partly Cloudy
5:53 AM 82.9 °F 90.2 °F 75.0 °F 77% 29.97 in 10.0 mi SW 10.4 mph - N/A   Partly Cloudy
6:53 AM 81.0 °F 86.2 °F 73.9 °F 79% 29.97 in 10.0 mi WSW 6.9 mph - N/A   Scattered Clouds
7:10 AM 81.0 °F 86.2 °F 73.9 °F 79% 29.97 in 10.0 mi SW 6.9 mph - N/A   Mostly Cloudy
7:20 AM 82.0 °F 87.9 °F 73.9 °F 76% 29.97 in 10.0 mi SW 6.9 mph - N/A   Scattered Clouds
7:27 AM 82.0 °F 88.6 °F 75.0 °F 79% 29.97 in 10.0 mi SW 5.8 mph - N/A   Mostly Cloudy
7:39 AM 82.0 °F 88.6 °F 75.0 °F 79% 29.97 in 10.0 mi SW 6.9 mph - N/A   Mostly Cloudy
7:53 AM 82.9 °F 90.2 °F 75.0 °F 77% 29.97 in 10.0 mi SW 9.2 mph - N/A   Scattered Clouds
8:53 AM 84.0 °F 91.2 °F 73.9 °F 72% 29.99 in 10.0 mi SW 12.7 mph - N/A   Partly Cloudy
9:31 AM 84.9 °F 91.4 °F 73.0 °F 67% 30.00 in 10.0 mi SW 8.1 mph - N/A   Mostly Cloudy
9:53 AM 84.9 °F 91.4 °F 73.0 °F 67% 30.01 in 10.0 mi SW 8.1 mph - N/A   Mostly Cloudy
10:09 AM 86.0 °F 93.0 °F 73.0 °F 65% 30.00 in 10.0 mi SSW 10.4 mph - N/A   Scattered Clouds
11:53 AM 89.1 °F 98.0 °F 73.9 °F 61% 30.00 in 10.0 mi South 11.5 mph - N/A   Partly Cloudy
12:53 PM 90.0 °F 97.9 °F 73.0 °F 57% 29.99 in 10.0 mi SSW 10.4 mph - N/A   Clear
1:53 PM 90.0 °F 97.9 °F 73.0 °F 57% 29.98 in 10.0 mi South 13.8 mph - N/A   Clear
2:17 PM 91.0 °F 99.3 °F 73.0 °F 55% 29.98 in 10.0 mi SSW 12.7 mph - N/A Thunderstorm Unknown
2:33 PM 88.0 °F 95.6 °F 73.0 °F 61% 29.99 in 10.0 mi South 8.1 mph - N/A   Unknown
2:43 PM 82.0 °F 86.3 °F 71.1 °F 69% 29.99 in 10.0 mi NE 19.6 mph - N/A Thunderstorm Mostly Cloudy
2:53 PM 82.0 °F 86.7 °F 72.0 °F 71% 29.99 in 10.0 mi NNE 9.2 mph 19.6 mph N/A   Mostly Cloudy
3:14 PM 80.1 °F 83.8 °F 72.0 °F 76% 29.98 in 10.0 mi WNW 9.2 mph - 0.00 in Rain , Thunderstorm Light Rain
3:42 PM 79.0 °F - 73.9 °F 84% 29.97 in 10.0 mi West 6.9 mph - 0.00 in Rain Light Rain
3:53 PM 80.1 °F 84.2 °F 73.0 °F 79% 29.96 in 10.0 mi WSW 5.8 mph - 0.00 in Rain Light Rain
4:53 PM 84.0 °F 91.2 °F 73.9 °F 72% 29.94 in 10.0 mi South 3.5 mph - 0.00 in   Clear
5:53 PM 86.0 °F 93.0 °F 73.0 °F 65% 29.93 in 10.0 mi SE 6.9 mph - N/A   Clear
6:53 PM 86.0 °F 91.5 °F 71.1 °F 61% 29.92 in 10.0 mi SE 6.9 mph - N/A   Clear
7:53 PM 84.9 °F 91.4 °F 73.0 °F 67% 29.92 in 10.0 mi South 5.8 mph - N/A   Clear
8:53 PM 84.0 °F 90.2 °F 73.0 °F 69% 29.94 in 10.0 mi South 3.5 mph - N/A   Clear
9:53 PM 82.0 °F 87.9 °F 73.9 °F 76% 29.95 in 10.0 mi Calm Calm - N/A   Clear
10:53 PM 80.1 °F 84.5 °F 73.9 °F 81% 29.96 in 10.0 mi ESE 3.5 mph - N/A   Clear
11:53 PM 81.0 °F 86.2 °F 73.9 °F 79% 29.96 in 10.0 mi South 4.6 mph - N/A   Clear